User: anonymous   Login
Location: Bullenkuhlen
(53.7689°N, 9.7495°E)
Time: 12:27:03
(UTC+00:00)
Language:

Cosmos 2233 Rocket - Orbit

View from above orbital plane
View from above orbital plane
View from above satellite
View from above satellite

Ground track
Ground track

The orbit data is extracted from the following two-line orbital elements,

1 22488U 93008B   20190.89844330 -.00000014 +00000-0 -28965-4 0  9996
2 22488 082.9430 326.6368 0024760 335.6474 136.4053 13.77706622377872
Epoch (UTC): 08 July 2020 21:33:45
Eccentricity: 0.0024760
inclination: 82.9430°
perigee height: 954 km
apogee height: 990 km
right ascension of ascending node: 326.6368°
argument of perigee: 335.6474°
revolutions per day: 13.77706622
mean anomaly at epoch: 136.4053°
orbit number at epoch: 37787

The dashed part of the orbit path shows where the satellite is in the earth's shadow,  

DLR